Regional Weather Roundup
Issued by NWS

Home | Current Version | Previous Version | Graphics & Text | Print | Product List | Glossary Off
Versions: 1 2 3 4 5 6 7 8 9 10 11 12 13 14 15 16 17 18 19 20 21 22 23 24 25 26 27 28 29 30 31 32 33 34 35 36 37 38 39 40 41 42 43 44 45 46 47 48 49 50

000
ASUS43 KTOP 272208
RWRKS

WEATHER ROUNDUP FOR KANSAS
NATIONAL WEATHER SERVICE GOODLAND KS
400 PM CST TUE JAN 27 2015

NOTE:  "FAIR" INDICATES FEW OR NO CLOUDS BELOW 12,000 FEET WITH NO
SIGNIFICANT WEATHER AND/OR OBSTRUCTIONS TO VISIBILITY.

KSZ001>006-013>018-027>032-041>047-272300-
NORTHWEST KANSAS

CITY           SKY/WX    TMP DP  RH WIND       PRES   REMARKS
GOODLAND       SUNNY     76  21  12 SW13      30.00F
HAYS           SUNNY     82  25  12 W16       29.95S
HILL CITY      SUNNY     83  30  14 NE5       29.93F
RUSSELL        SUNNY     82  30  15 SW9       29.92F
$$

KSZ061>065-074>080-084>089-272300-
SOUTHWEST KANSAS

CITY           SKY/WX    TMP DP  RH WIND       PRES   REMARKS
DODGE CITY     SUNNY     79  25  13 SW21G26   30.02F
ELKHART          N/A     74  31  20 SW14        N/A
GARDEN CITY    SUNNY     77  23  13 SW16      30.01F
LIBERAL        PTSUNNY   79  30  17 SW16      30.06F
PRATT          SUNNY     79  28  15 SW17      30.01S
$$

KSZ066>073-081>083-090>101-272300-
SOUTHEAST KANSAS

CITY           SKY/WX    TMP DP  RH WIND       PRES   REMARKS
CHANUTE        SUNNY     63  34  33 S10       30.09S
COFFEYVILLE    SUNNY     66  35  31 SE6       30.09S
HUTCHINSON     SUNNY     77  35  21 S16       29.98F
MEDICINE LODGE   N/A     81  27  14 SW15G23   29.99F
NEWTON         SUNNY     70  34  26 S17       30.03S
PARSONS        SUNNY     65  35  33 S8        30.09F
WICHITA INTL   MOSUNNY   72  36  26 S14       30.01F
WICHITA JABRA  SUNNY     70  35  27 S15       30.02S
WICHITA MCCONL SUNNY     71  37  29 S15       30.02F
WINFIELD       SUNNY     73  31  21 S10       30.04F
$$

KSZ007>012-019>026-033>040-048>060-102>105-272300-
NORTHEAST KANSAS

CITY           SKY/WX    TMP DP  RH WIND       PRES   REMARKS
CONCORDIA      SUNNY     69  35  28 S13       29.96F
EMPORIA        SUNNY     62  34  35 SE14      30.03F
LAWRENCE       SUNNY     58  31  35 SE12      30.07F
MANHATTAN      SUNNY     65  35  33 SE14      30.00F
MARYSVILLE     SUNNY     61  34  36 S10G20    30.00S
OLATHE IND     SUNNY     57  32  38 SE12      30.08F
OLATHE EXE     SUNNY     57  33  40 S9        30.07F
SALINA         SUNNY     75  37  25 S12       29.96F
TOPEKA BILLARD SUNNY     60  32  34 SE13      30.05F
TOPEKA FORBES  SUNNY     62  33  33 SE13      30.05F
$$



USA.gov is the U.S. government's official web portal to all federal, state and local government web resources and services.